Location: Houhaj�rvi
(61.2833°N, 23.0000°E)
Time: 02:39:46
(UTC+00:00)

Cosmos 2263 Rocket - Pass Details

Date: 27 February 2020
Orbit: 822 x 850 km, 71.0° (Epoch: 05 April)

Event Time Altitude Azimuth Distance (km) Brightness Sun altitude
Rises 18:50:17 0° 314° (NW) 3,412 6.6 -22.4°
Reaches altitude 10° 18:52:46 10° 318° (NW) 2,479 5.6 -22.7°
Maximum altitude 18:58:26 66° 41° (NE) 929 2.3 -23.3°
Enters shadow 18:59:34 53° 93° (E) 1,035 2.3 -23.4°
